Weather in Svetlogorsk

Russia / Kaliningrad Oblast     54°56′38″N   20°09′05″E
temp.,
°C
wind,
m/s
gust,
m/s
humid.,
%
clouds,
%
prec.,
mm/h
press.,
hPa
HPBL,
m
4 december, sat
sat423:00+2sw5798100 0.6 1003502
02:00+3sw111281100 2.3 1003855
05:00+3sw101180100 0.0 1002869
08:00+1ssw9119698 0.5 1001716
11:00+2ssw7996100 0.8 1001637
14:00+3ssw71097100 1.1 1001639
17:00+3sw7994100 2.0 1002655
20:00+4sw6687100 2.6 1002595
5 december, sun
sun523:00+4ssw568791 0.2 1004477
02:00+3ssw568599 0.2 1005505
05:00+2sse339189 0.0 1006186
08:00+2ese4489100 0.0 1008239
11:00+2e7791100 0.0 1009496
14:00+2e8888100 0.1 1010631
17:00+1ene91086100 0.1 1012728
20:000ene101090100 0.2 1013716
6 december, mon
mon623:00−1ene101090100 0.2 1014702
02:00−1ene101089100 0.3 1015708
05:00−2ene101088100 0.1 1016749
08:00−2ne91087100 0.2 1016762
11:00−3ne8884100 0.1 1018798
14:00−3ne8879100 0.1 1017808
17:00−2ne877396 0.0 1017920
20:00−3ne7775100 0.0 1017924
7 december, tue
tue723:00−3ne667486 0.0 1017833
02:00−3ene667484 0.0 1016828
05:00−4e667594 0.0 1016832
08:00−4e677684 0.0 1017754
11:00−4e677688 0.0 1018735
14:00−3e667567 0.0 1018709
17:00−3e677629 0.0 1018652
20:00−4ese787826 0.0 1019616
8 december, wed
wed823:00−4ese78837 0.0 1020507
02:00−5ese68805 0.0 1020432
05:00−5ese78795 0.0 1019436
08:00−5ese811785 0.0 1019446
11:00−5ese9117838 0.0 1020433
14:00−4ese91074100 0.0 1019495
17:00−3e101277100 0.0 1019550
20:00−4ese101371100 0.0 1020521